| time (UTC) | temp C | wind direction | speed KPH | gust KPH | rain 1hr cm | rain 24hr cm | rain mn cm | humidity % | barometer mb |
| 20260507144352 | 9 | 22 | 3.2 | 12.9 | 0.00 | 0.00 | 0.00 | 78 | 1020.8 |
| 20260507144346 | 9 | 352 | 3.2 | 8.0 | 0.00 | 0.00 | 0.00 | 77 | 1020.8 |
| 20260507143845 | 9 | 24 | 3.2 | 12.9 | 0.00 | 0.00 | 0.00 | 78 | 1020.7 |
| 20260507142844 | 9 | 332 | 3.2 | 12.9 | 0.00 | 0.00 | 0.00 | 79 | 1020.8 |
| 20260507142343 | 9 | 320 | 3.2 | 12.9 | 0.00 | 0.00 | 0.00 | 78 | 1020.7 |
| 20260507141843 | 9 | 53 | 3.2 | 9.7 | 0.00 | 0.00 | 0.00 | 79 | 1020.7 |
| 20260507141347 | 9 | 34 | 1.6 | 4.8 | 0.00 | 0.00 | 0.00 | 79 | 1020.7 |
| 20260507141343 | 9 | 328 | 1.6 | 9.7 | 0.00 | 0.00 | 0.00 | 79 | 1020.7 |
| 20260507140342 | 9 | 324 | 1.6 | 6.4 | 0.00 | 0.00 | 0.00 | 79 | 1020.6 |
| 20260507135843 | 9 | 354 | 1.6 | 6.4 | 0.00 | 0.00 | 0.00 | 79 | 1020.6 |
| 20260507135342 | 9 | 25 | 1.6 | 9.7 | 0.00 | 0.00 | 0.00 | 79 | 1020.6 |
| 20260507134841 | 9 | 36 | 1.6 | 9.7 | 0.00 | 0.00 | 0.00 | 79 | 1020.5 |
| 20260507134342 | 9 | 341 | 1.6 | 8.0 | 0.00 | 0.00 | 0.00 | 80 | 1020.5 |
| 20260507133845 | 9 | 9 | 1.6 | 6.4 | 0.00 | 0.00 | 0.00 | 80 | 1020.4 |
| 20260507133841 | 9 | 11 | 1.6 | 8.0 | 0.00 | 0.00 | 0.00 | 80 | 1020.5 |
| 20260507132838 | 9 | 37 | 1.6 | 6.4 | 0.00 | 0.00 | 0.00 | 80 | 1020.4 |
| 20260507132336 | 9 | 16 | 1.6 | 6.4 | 0.00 | 0.00 | 0.00 | 80 | 1020.4 |
| 20260507131839 | 9 | 20 | 3.2 | 8.0 | 0.00 | 0.00 | 0.00 | 80 | 1020.4 |
| 20260507131835 | 9 | 8 | 1.6 | 6.4 | 0.00 | 0.00 | 0.00 | 79 | 1020.4 |
| 20260507131457 | 9 | 17 | 1.6 | 4.8 | 0.00 | 0.00 | 0.00 | 80 | 1020.4 |
| 20260507131333 | 9 | 35 | 3.2 | 8.0 | 0.00 | 0.00 | 0.00 | 80 | 1020.4 |
| 20260507130334 | 9 | 22 | 1.6 | 8.0 | 0.00 | 0.00 | 0.00 | 80 | 1020.4 |
| 20260507125835 | 9 | 48 | 1.6 | 4.8 | 0.00 | 0.00 | 0.00 | 79 | 1020.5 |
| 20260507124835 | 9 | 327 | 1.6 | 6.4 | 0.00 | 0.00 | 0.00 | 79 | 1020.5 |
| 20260507124333 | 9 | 22 | 1.6 | 6.4 | 0.00 | 0.00 | 0.00 | 80 | 1020.4 |
| 20260507123834 | 9 | 11 | 1.6 | 4.8 | 0.00 | 0.00 | 0.00 | 80 | 1020.5 |
| 20260507123335 | 9 | 356 | 0.0 | 4.8 | 0.00 | 0.00 | 0.00 | 80 | 1020.4 |
| 20260507122834 | 10 | 347 | 1.6 | 8.0 | 0.00 | 0.00 | 0.00 | 80 | 1020.5 |
| 20260507122333 | 10 | 332 | 1.6 | 8.0 | 0.00 | 0.00 | 0.00 | 79 | 1020.5 |
| 20260507121832 | 10 | 341 | 1.6 | 4.8 | 0.00 | 0.00 | 0.00 | 79 | 1020.5 |
| 20260507121338 | 10 | 337 | 0.0 | 4.8 | 0.00 | 0.00 | 0.00 | 79 | 1020.6 |
| 20260507121333 | 10 | 323 | 0.0 | 4.8 | 0.00 | 0.00 | 0.00 | 79 | 1020.5 |
| 20260507120332 | 10 | 328 | 0.0 | 3.2 | 0.00 | 0.00 | 0.00 | 79 | 1020.6 |
| 20260507115832 | 10 | 349 | 1.6 | 4.8 | 0.00 | 0.00 | 0.00 | 79 | 1020.7 |
| 20260507115333 | 10 | 352 | 1.6 | 4.8 | 0.00 | 0.00 | 0.00 | 79 | 1020.7 |
| 20260507114832 | 10 | 339 | 0.0 | 3.2 | 0.00 | 0.00 | 0.00 | 80 | 1020.7 |
| 20260507114333 | 10 | 359 | 1.6 | 6.4 | 0.00 | 0.00 | 0.00 | 80 | 1020.7 |
| 20260507113833 | 10 | 16 | 1.6 | 8.0 | 0.00 | 0.00 | 0.00 | 80 | 1020.7 |
| 20260507113333 | 10 | 1 | 1.6 | 8.0 | 0.00 | 0.00 | 0.00 | 79 | 1020.7 |
| 20260507112833 | 10 | 342 | 1.6 | 6.4 | 0.00 | 0.00 | 0.00 | 80 | 1020.7 |
| 20260507112332 | 10 | 31 | 1.6 | 6.4 | 0.00 | 0.00 | 0.00 | 80 | 1020.7 |
| 20260507111835 | 10 | 1 | 1.6 | 6.4 | 0.00 | 0.00 | 0.00 | 80 | 1020.7 |
| 20260507111333 | 10 | 323 | 1.6 | 4.8 | 0.00 | 0.00 | 0.00 | 81 | 1020.8 |
| 20260507110831 | 10 | 337 | 0.0 | 4.8 | 0.00 | 0.00 | 0.00 | 81 | 1020.8 |
| 20260507110332 | 10 | 328 | 0.0 | 6.4 | 0.00 | 0.00 | 0.00 | 81 | 1020.8 |
| 20260507105831 | 10 | 339 | 1.6 | 6.4 | 0.00 | 0.00 | 0.00 | 82 | 1020.8 |
| 20260507105331 | 10 | 351 | 0.0 | 3.2 | 0.00 | 0.00 | 0.00 | 82 | 1020.9 |
| 20260507104831 | 10 | 309 | 0.0 | 1.6 | 0.00 | 0.00 | 0.00 | 82 | 1020.8 |
| 20260507104333 | 10 | 309 | 0.0 | 1.6 | 0.00 | 0.00 | 0.00 | 82 | 1020.8 |
| 20260507103837 | 10 | 304 | 0.0 | 3.2 | 0.00 | 0.00 | 0.00 | 81 | 1020.9 |
| 20260507103831 | 10 | 309 | 0.0 | 1.6 | 0.00 | 0.00 | 0.00 | 82 | 1020.9 |
| 20260507102833 | 10 | 335 | 0.0 | 3.2 | 0.00 | 0.00 | 0.00 | 81 | 1020.9 |
| 20260507102331 | 10 | 328 | 1.6 | 8.0 | 0.00 | 0.00 | 0.00 | 81 | 1020.9 |
| 20260507101833 | 10 | 314 | 3.2 | 9.7 | 0.00 | 0.00 | 0.00 | 81 | 1021.0 |
| 20260507101332 | 10 | 321 | 1.6 | 9.7 | 0.00 | 0.00 | 0.00 | 81 | 1020.9 |
| 20260507100832 | 10 | 311 | 1.6 | 6.4 | 0.00 | 0.00 | 0.00 | 81 | 1021.1 |
| 20260507100333 | 10 | 316 | 1.6 | 6.4 | 0.00 | 0.00 | 0.00 | 81 | 1021.0 |
| 20260507095833 | 10 | 9 | 3.2 | 6.4 | 0.00 | 0.00 | 0.00 | 81 | 1021.1 |
| 20260507095337 | 10 | 340 | 1.6 | 4.8 | 0.00 | 0.00 | 0.00 | 81 | 1021.1 |
| 20260507095331 | 10 | 334 | 1.6 | 6.4 | 0.00 | 0.00 | 0.00 | 81 | 1021.1 |
| 20260507094333 | 10 | 321 | 0.0 | 4.8 | 0.00 | 0.00 | 0.00 | 81 | 1021.1 |
| 20260507093831 | 11 | 330 | 0.0 | 6.4 | 0.00 | 0.00 | 0.00 | 81 | 1021.2 |
| 20260507093333 | 11 | 20 | 1.6 | 6.4 | 0.00 | 0.00 | 0.00 | 81 | 1021.2 |
| 20260507092832 | 11 | 322 | 1.6 | 8.0 | 0.00 | 0.00 | 0.00 | 80 | 1021.2 |
| 20260507092337 | 11 | 313 | 0.0 | 4.8 | 0.00 | 0.00 | 0.00 | 81 | 1021.4 |
| 20260507092333 | 11 | 314 | 1.6 | 8.0 | 0.00 | 0.00 | 0.00 | 81 | 1021.3 |
| 20260507091333 | 11 | 307 | 1.6 | 6.4 | 0.00 | 0.00 | 0.00 | 81 | 1021.4 |
| 20260507090832 | 11 | 307 | 1.6 | 6.4 | 0.00 | 0.00 | 0.00 | 81 | 1021.4 |
| 20260507090332 | 11 | 314 | 1.6 | 4.8 | 0.00 | 0.00 | 0.00 | 81 | 1021.4 |
| 20260507085832 | 11 | 328 | 1.6 | 8.0 | 0.00 | 0.00 | 0.00 | 81 | 1021.3 |
| 20260507085332 | 11 | 316 | 0.0 | 8.0 | 0.00 | 0.00 | 0.00 | 81 | 1021.3 |
| 20260507084832 | 11 | 318 | 0.0 | 3.2 | 0.00 | 0.00 | 0.00 | 82 | 1021.4 |
| 20260507084337 | 11 | 330 | 0.0 | 4.8 | 0.00 | 0.00 | 0.00 | 82 | 1021.3 |
| 20260507084331 | 11 | 320 | 0.0 | 3.2 | 0.00 | 0.00 | 0.00 | 82 | 1021.3 |
| 20260507083332 | 11 | 328 | 1.6 | 6.4 | 0.00 | 0.00 | 0.00 | 82 | 1021.3 |
| 20260507082831 | 11 | 338 | 1.6 | 6.4 | 0.00 | 0.00 | 0.00 | 82 | 1021.4 |
| 20260507082332 | 11 | 320 | 1.6 | 8.0 | 0.00 | 0.00 | 0.00 | 82 | 1021.6 |
| 20260507081831 | 11 | 318 | 1.6 | 8.0 | 0.00 | 0.00 | 0.00 | 82 | 1021.6 |
| 20260507081333 | 11 | 5 | 0.0 | 6.4 | 0.00 | 0.00 | 0.00 | 82 | 1021.4 |
| 20260507080832 | 11 | 303 | 0.0 | 3.2 | 0.00 | 0.00 | 0.00 | 82 | 1021.3 |
| 20260507080332 | 11 | 314 | 0.0 | 1.6 | 0.00 | 0.00 | 0.00 | 83 | 1021.4 |
| 20260507075831 | 11 | 323 | 0.0 | 3.2 | 0.00 | 0.00 | 0.00 | 83 | 1021.4 |
| 20260507075333 | 11 | 315 | 0.0 | 3.2 | 0.00 | 0.00 | 0.00 | 83 | 1021.4 |
| 20260507074831 | 11 | 311 | 0.0 | 4.8 | 0.00 | 0.00 | 0.00 | 83 | 1021.4 |
| 20260507074332 | 11 | 316 | 1.6 | 4.8 | 0.00 | 0.00 | 0.00 | 83 | 1021.4 |
| 20260507073832 | 11 | 317 | 1.6 | 8.0 | 0.00 | 0.00 | 0.00 | 83 | 1021.4 |
| 20260507073337 | 11 | 318 | 1.6 | 4.8 | 0.00 | 0.00 | 0.00 | 83 | 1021.4 |
| 20260507073331 | 11 | 358 | 1.6 | 8.0 | 0.00 | 0.00 | 0.00 | 83 | 1021.4 |
| 20260507072951 | 11 | 344 | 1.6 | 6.4 | 0.00 | 0.00 | 0.00 | 83 | 1021.3 |
| 20260507071837 | 11 | 309 | 1.6 | 8.0 | 0.00 | 0.00 | 0.00 | 83 | 1021.3 |
| 20260507071832 | 11 | 8 | 1.6 | 8.0 | 0.00 | 0.00 | 0.00 | 83 | 1021.3 |
| 20260507070833 | 11 | 288 | 1.6 | 6.4 | 0.00 | 0.00 | 0.00 | 83 | 1021.2 |
| 20260507070332 | 11 | 335 | 1.6 | 8.0 | 0.00 | 0.00 | 0.00 | 83 | 1021.2 |
| 20260507065835 | 11 | 356 | 3.2 | 11.3 | 0.00 | 0.00 | 0.00 | 83 | 1021.2 |
| 20260507065830 | 11 | 0 | 1.6 | 11.3 | 0.00 | 0.00 | 0.00 | 82 | 1021.2 |
| 20260507064830 | 11 | 12 | 3.2 | 8.0 | 0.00 | 0.00 | 0.00 | 82 | 1021.2 |
| 20260507064337 | 11 | 340 | 3.2 | 17.7 | 0.00 | 0.00 | 0.00 | 82 | 1021.3 |
| 20260507064332 | 11 | 47 | 3.2 | 17.7 | 0.00 | 0.00 | 0.00 | 82 | 1021.3 |
| 20260507063332 | 11 | 317 | 3.2 | 9.7 | 0.00 | 0.00 | 0.00 | 82 | 1021.3 |
| 20260507062831 | 11 | 20 | 3.2 | 11.3 | 0.00 | 0.00 | 0.00 | 82 | 1021.3 |
| 20260507062328 | 11 | 297 | 1.6 | 11.3 | 0.00 | 0.00 | 0.00 | 82 | 1021.3 |
| 20260507061828 | 11 | 333 | 3.2 | 12.9 | 0.00 | 0.00 | 0.00 | 82 | 1021.3 |
| 20260507061328 | 11 | 29 | 4.8 | 12.9 | 0.00 | 0.00 | 0.00 | 82 | 1021.3 |
| 20260507060828 | 11 | 330 | 4.8 | 12.9 | 0.00 | 0.00 | 0.00 | 82 | 1021.3 |
| 20260507060329 | 11 | 318 | 3.2 | 11.3 | 0.00 | 0.00 | 0.00 | 82 | 1021.3 |
| 20260507055828 | 11 | 319 | 3.2 | 11.3 | 0.00 | 0.00 | 0.00 | 82 | 1021.3 |
| 20260507055329 | 11 | 328 | 3.2 | 11.3 | 0.00 | 0.00 | 0.00 | 82 | 1021.3 |
| 20260507054828 | 11 | 329 | 4.8 | 11.3 | 0.00 | 0.00 | 0.00 | 82 | 1021.3 |
| 20260507054331 | 11 | 40 | 3.2 | 9.7 | 0.00 | 0.00 | 0.00 | 81 | 1021.3 |
| 20260507054327 | 11 | 273 | 3.2 | 12.9 | 0.00 | 0.00 | 0.00 | 81 | 1021.2 |
| 20260507053932 | 11 | 340 | 1.6 | 9.7 | 0.00 | 0.00 | 0.00 | 81 | 1021.3 |
| 20260507052827 | 11 | 340 | 3.2 | 12.9 | 0.00 | 0.00 | 0.00 | 81 | 1021.2 |
| 20260507052325 | 12 | 325 | 3.2 | 12.9 | 0.00 | 0.00 | 0.00 | 81 | 1021.2 |
| 20260507051831 | 12 | 24 | 4.8 | 16.1 | 0.00 | 0.00 | 0.00 | 80 | 1021.2 |
| 20260507051826 | 12 | 300 | 4.8 | 12.9 | 0.00 | 0.00 | 0.00 | 81 | 1021.2 |
| 20260507050827 | 12 | 352 | 1.6 | 16.1 | 0.00 | 0.00 | 0.00 | 80 | 1021.2 |
| 20260507050328 | 12 | 264 | 3.2 | 19.3 | 0.00 | 0.00 | 0.00 | 80 | 1021.3 |
| 20260507045826 | 12 | 1 | 4.8 | 19.3 | 0.00 | 0.00 | 0.00 | 80 | 1021.3 |
| 20260507045331 | 12 | 22 | 4.8 | 22.5 | 0.00 | 0.00 | 0.00 | 80 | 1021.3 |
| 20260507045327 | 12 | 317 | 4.8 | 22.5 | 0.00 | 0.00 | 0.00 | 80 | 1021.3 |
| 20260507044325 | 12 | 42 | 4.8 | 17.7 | 0.00 | 0.00 | 0.00 | 80 | 1021.3 |
| 20260507043830 | 12 | 340 | 6.4 | 17.7 | 0.00 | 0.00 | 0.00 | 79 | 1021.2 |
| 20260507043824 | 12 | 354 | 6.4 | 17.7 | 0.00 | 0.00 | 0.00 | 79 | 1021.3 |
| 20260507042825 | 12 | 51 | 4.8 | 17.7 | 0.00 | 0.00 | 0.00 | 79 | 1021.1 |
| 20260507042324 | 12 | 110 | 4.8 | 14.5 | 0.00 | 0.00 | 0.00 | 79 | 1021.1 |
| 20260507041824 | 12 | 250 | 3.2 | 12.9 | 0.00 | 0.00 | 0.00 | 79 | 1021.1 |
| 20260507041324 | 13 | 44 | 3.2 | 11.3 | 0.00 | 0.00 | 0.00 | 79 | 1021.0 |
| 20260507040825 | 13 | 8 | 4.8 | 12.9 | 0.00 | 0.00 | 0.00 | 79 | 1021.0 |
| 20260507040324 | 13 | 308 | 6.4 | 17.7 | 0.00 | 0.00 | 0.00 | 79 | 1021.0 |
| 20260507035822 | 13 | 11 | 4.8 | 17.7 | 0.00 | 0.00 | 0.00 | 79 | 1020.9 |
| 20260507035323 | 13 | 27 | 3.2 | 12.9 | 0.00 | 0.00 | 0.00 | 79 | 1020.8 |
| 20260507034822 | 13 | 325 | 3.2 | 12.9 | 0.00 | 0.00 | 0.00 | 79 | 1020.7 |
| 20260507034323 | 13 | 57 | 3.2 | 9.7 | 0.00 | 0.00 | 0.00 | 79 | 1020.7 |
| 20260507033821 | 13 | 340 | 3.2 | 9.7 | 0.00 | 0.00 | 0.00 | 79 | 1020.6 |
| 20260507033322 | 13 | 305 | 1.6 | 9.7 | 0.00 | 0.00 | 0.00 | 79 | 1020.6 |
| 20260507032823 | 13 | 318 | 1.6 | 9.7 | 0.00 | 0.00 | 0.00 | 79 | 1020.5 |
| 20260507032322 | 13 | 344 | 3.2 | 14.5 | 0.00 | 0.00 | 0.00 | 79 | 1020.4 |
| 20260507031822 | 13 | 340 | 4.8 | 14.5 | 0.00 | 0.00 | 0.00 | 79 | 1020.3 |
| 20260507031323 | 13 | 349 | 3.2 | 12.9 | 0.00 | 0.00 | 0.00 | 79 | 1020.3 |
| 20260507030820 | 13 | 321 | 1.6 | 12.9 | 0.00 | 0.00 | 0.00 | 79 | 1020.3 |
| 20260507030319 | 13 | 320 | 1.6 | 6.4 | 0.00 | 0.00 | 0.00 | 79 | 1020.2 |
| 20260507025820 | 14 | 290 | 3.2 | 9.7 | 0.00 | 0.00 | 0.00 | 78 | 1020.1 |
| 20260507025325 | 14 | 6 | 3.2 | 9.7 | 0.00 | 0.00 | 0.00 | 78 | 1020.1 |
| 20260507025320 | 14 | 302 | 3.2 | 9.7 | 0.00 | 0.00 | 0.00 | 78 | 1020.1 |
| 20260507024320 | 14 | 337 | 3.2 | 11.3 | 0.00 | 0.00 | 0.00 | 77 | 1020.0 |
| 20260507023820 | 15 | 295 | 3.2 | 11.3 | 0.00 | 0.00 | 0.00 | 76 | 1020.0 |
| 20260507023320 | 15 | 332 | 3.2 | 9.7 | 0.00 | 0.00 | 0.00 | 76 | 1019.9 |
| 20260507022820 | 15 | 337 | 3.2 | 12.9 | 0.00 | 0.00 | 0.00 | 75 | 1020.0 |
| 20260507022320 | 15 | 352 | 3.2 | 12.9 | 0.00 | 0.00 | 0.00 | 74 | 1020.0 |
| 20260507021819 | 16 | 344 | 3.2 | 9.7 | 0.00 | 0.00 | 0.00 | 73 | 1020.0 |
| 20260507021323 | 16 | 354 | 3.2 | 12.9 | 0.00 | 0.00 | 0.00 | 73 | 1020.0 |
| 20260507021319 | 16 | 325 | 3.2 | 12.9 | 0.00 | 0.00 | 0.00 | 74 | 1020.0 |
| 20260507020323 | 16 | 321 | 3.2 | 9.7 | 0.00 | 0.00 | 0.00 | 73 | 1020.1 |
| 20260507020318 | 16 | 335 | 3.2 | 9.7 | 0.00 | 0.00 | 0.00 | 74 | 1020.1 |
| 20260507015318 | 16 | 339 | 4.8 | 12.9 | 0.00 | 0.00 | 0.00 | 73 | 1020.1 |
| 20260507014823 | 16 | 111 | 4.8 | 14.5 | 0.00 | 0.00 | 0.00 | 73 | 1020.2 |
| 20260507014819 | 16 | 342 | 4.8 | 14.5 | 0.00 | 0.00 | 0.00 | 73 | 1020.1 |
| 20260507014442 | 16 | 36 | 4.8 | 19.3 | 0.00 | 0.00 | 0.00 | 73 | 1020.2 |
| 20260507013319 | 16 | 330 | 3.2 | 19.3 | 0.00 | 0.00 | 0.00 | 72 | 1020.2 |
| 20260507012816 | 16 | 10 | 3.2 | 11.3 | 0.00 | 0.00 | 0.00 | 73 | 1020.1 |
| 20260507012322 | 17 | 318 | 4.8 | 12.9 | 0.00 | 0.00 | 0.00 | 72 | 1020.1 |
| 20260507012318 | 16 | 339 | 4.8 | 12.9 | 0.00 | 0.00 | 0.00 | 73 | 1020.1 |
| 20260507011317 | 17 | 37 | 4.8 | 12.9 | 0.00 | 0.00 | 0.00 | 73 | 1020.1 |
| 20260507010822 | 17 | 313 | 8.0 | 16.1 | 0.00 | 0.00 | 0.00 | 72 | 1020.1 |
| 20260507010816 | 17 | 1 | 4.8 | 12.9 | 0.00 | 0.00 | 0.00 | 72 | 1020.0 |
| 20260507005816 | 17 | 314 | 6.4 | 16.1 | 0.00 | 0.00 | 0.00 | 72 | 1020.1 |
| 20260507005322 | 18 | 318 | 4.8 | 17.7 | 0.00 | 0.00 | 0.00 | 73 | 1020.0 |
| 20260507005318 | 17 | 333 | 4.8 | 12.9 | 0.00 | 0.00 | 0.00 | 72 | 1020.0 |
| 20260507004317 | 18 | 1 | 4.8 | 17.7 | 0.00 | 0.00 | 0.00 | 72 | 1020.0 |
| 20260507003814 | 18 | 15 | 4.8 | 11.3 | 0.00 | 0.00 | 0.00 | 71 | 1020.0 |
| 20260507003315 | 18 | 52 | 4.8 | 11.3 | 0.00 | 0.00 | 0.00 | 71 | 1020.0 |
| 20260507002813 | 18 | 347 | 3.2 | 11.3 | 0.00 | 0.00 | 0.00 | 70 | 1020.0 |
| 20260507002314 | 18 | 1 | 1.6 | 8.0 | 0.00 | 0.00 | 0.00 | 70 | 1020.0 |
| 20260507001815 | 18 | 8 | 1.6 | 4.8 | 0.00 | 0.00 | 0.00 | 70 | 1020.0 |
| 20260507001315 | 18 | 332 | 1.6 | 6.4 | 0.00 | 0.00 | 0.00 | 71 | 1020.0 |
| 20260507000819 | 18 | 289 | 0.0 | 6.4 | 0.00 | 0.00 | 0.00 | 69 | 1020.0 |
| 20260507000814 | 18 | 323 | 1.6 | 6.4 | 0.00 | 0.00 | 0.00 | 69 | 1020.0 |
| 20260506235819 | 18 | 276 | 1.6 | 6.4 | 0.00 | 0.00 | 0.00 | 68 | 1020.0 |
| 20260506235813 | 18 | 276 | 1.6 | 6.4 | 0.00 | 0.00 | 0.00 | 69 | 1020.0 |
| 20260506234812 | 18 | 18 | 3.2 | 8.0 | 0.00 | 0.00 | 0.00 | 68 | 1019.9 |
| 20260506234313 | 18 | 346 | 3.2 | 8.0 | 0.00 | 0.00 | 0.00 | 68 | 1019.9 |
| 20260506233812 | 18 | 349 | 3.2 | 8.0 | 0.00 | 0.00 | 0.00 | 68 | 1020.0 |
| 20260506233312 | 18 | 329 | 3.2 | 8.0 | 0.00 | 0.00 | 0.00 | 68 | 1020.0 |
| 20260506232812 | 18 | 354 | 1.6 | 4.8 | 0.00 | 0.00 | 0.00 | 68 | 1020.0 |
| 20260506232312 | 18 | 340 | 0.0 | 6.4 | 0.00 | 0.00 | 0.00 | 66 | 1020.0 |
| 20260506231811 | 18 | 257 | 1.6 | 9.7 | 0.00 | 0.00 | 0.00 | 67 | 1020.0 |
| 20260506231313 | 18 | 282 | 1.6 | 9.7 | 0.00 | 0.00 | 0.00 | 67 | 1020.1 |
| 20260506230809 | 18 | 273 | 0.0 | 3.2 | 0.00 | 0.00 | 0.00 | 69 | 1020.1 |
| 20260506230311 | 18 | 312 | 0.0 | 1.6 | 0.00 | 0.00 | 0.00 | 69 | 1020.2 |
| 20260506225810 | 18 | 319 | 0.0 | 4.8 | 0.00 | 0.00 | 0.00 | 70 | 1020.3 |
| 20260506225310 | 17 | 269 | 1.6 | 6.4 | 0.00 | 0.00 | 0.00 | 70 | 1020.3 |
| 20260506224807 | 17 | 267 | 1.6 | 6.4 | 0.00 | 0.00 | 0.00 | 73 | 1020.4 |
| 20260506224308 | 17 | 280 | 1.6 | 8.0 | 0.00 | 0.00 | 0.00 | 71 | 1020.4 |
| 20260506223809 | 17 | 304 | 1.6 | 8.0 | 0.00 | 0.00 | 0.00 | 71 | 1020.5 |
| 20260506223307 | 17 | 291 | 1.6 | 4.8 | 0.00 | 0.00 | 0.00 | 71 | 1020.5 |
| 20260506222809 | 17 | 323 | 1.6 | 6.4 | 0.00 | 0.00 | 0.00 | 73 | 1020.6 |
| 20260506222309 | 17 | 320 | 1.6 | 9.7 | 0.00 | 0.00 | 0.00 | 73 | 1020.6 |
| 20260506221811 | 17 | 304 | 3.2 | 8.0 | 0.00 | 0.00 | 0.00 | 73 | 1020.7 |
| 20260506221807 | 17 | 1 | 3.2 | 9.7 | 0.00 | 0.00 | 0.00 | 74 | 1020.6 |
| 20260506220807 | 17 | 292 | 1.6 | 6.4 | 0.00 | 0.00 | 0.00 | 73 | 1020.6 |
| 20260506220307 | 17 | 308 | 1.6 | 6.4 | 0.00 | 0.00 | 0.00 | 72 | 1020.6 |
| 20260506215806 | 17 | 248 | 1.6 | 4.8 | 0.00 | 0.00 | 0.00 | 72 | 1020.5 |
| 20260506215307 | 17 | 329 | 0.0 | 4.8 | 0.00 | 0.00 | 0.00 | 72 | 1020.5 |
| 20260506214807 | 17 | 257 | 0.0 | 3.2 | 0.00 | 0.00 | 0.00 | 74 | 1020.5 |
| 20260506214310 | 16 | 288 | 1.6 | 6.4 | 0.00 | 0.00 | 0.00 | 76 | 1020.6 |
| 20260506214305 | 17 | 318 | 0.0 | 3.2 | 0.00 | 0.00 | 0.00 | 75 | 1020.6 |
| 20260506213304 | 16 | 297 | 1.6 | 6.4 | 0.00 | 0.00 | 0.00 | 75 | 1020.7 |
| 20260506212808 | 16 | 260 | 1.6 | 9.7 | 0.00 | 0.00 | 0.00 | 75 | 1020.9 |
| 20260506212802 | 16 | 331 | 1.6 | 6.4 | 0.00 | 0.00 | 0.00 | 76 | 1020.8 |
| 20260506211802 | 17 | 288 | 1.6 | 9.7 | 0.00 | 0.00 | 0.00 | 73 | 1021.0 |
| 20260506211303 | 17 | 265 | 1.6 | 9.7 | 0.00 | 0.00 | 0.00 | 73 | 1020.9 |
| 20260506210803 | 17 | 257 | 1.6 | 4.8 | 0.00 | 0.00 | 0.00 | 75 | 1021.0 |
| 20260506210302 | 16 | 167 | 1.6 | 4.8 | 0.00 | 0.00 | 0.00 | 75 | 1021.0 |
| 20260506205802 | 16 | 288 | 1.6 | 4.8 | 0.00 | 0.00 | 0.00 | 75 | 1021.0 |
| 20260506205305 | 16 | 213 | 3.2 | 9.7 | 0.00 | 0.00 | 0.00 | 76 | 1021.0 |
| 20260506204804 | 16 | 183 | 3.2 | 9.7 | 0.00 | 0.00 | 0.00 | 76 | 1021.0 |
| 20260506204307 | 16 | 271 | 3.2 | 8.0 | 0.00 | 0.00 | 0.00 | 77 | 1020.9 |
| 20260506204303 | 16 | 241 | 1.6 | 9.7 | 0.00 | 0.00 | 0.00 | 76 | 1020.9 |
| 20260506203919 | 16 | 284 | 3.2 | 8.0 | 0.00 | 0.00 | 0.00 | 78 | 1020.9 |
| 20260506202800 | 16 | 248 | 1.6 | 6.4 | 0.00 | 0.00 | 0.00 | 77 | 1020.9 |
| 20260506202301 | 16 | 256 | 1.6 | 4.8 | 0.00 | 0.00 | 0.00 | 78 | 1020.9 |
| 20260506201759 | 15 | 243 | 1.6 | 4.8 | 0.00 | 0.00 | 0.00 | 79 | 1021.0 |
| 20260506201300 | 15 | 298 | 1.6 | 8.0 | 0.00 | 0.00 | 0.00 | 79 | 1021.0 |
| 20260506200801 | 15 | 230 | 3.2 | 8.0 | 0.00 | 0.00 | 0.00 | 80 | 1021.0 |
| 20260506200259 | 15 | 295 | 1.6 | 4.8 | 0.00 | 0.00 | 0.00 | 79 | 1021.1 |
| 20260506195800 | 15 | 297 | 1.6 | 6.4 | 0.00 | 0.00 | 0.00 | 79 | 1021.2 |
| 20260506195300 | 15 | 218 | 1.6 | 6.4 | 0.00 | 0.00 | 0.00 | 79 | 1021.2 |
| 20260506194758 | 15 | 239 | 3.2 | 8.0 | 0.00 | 0.00 | 0.00 | 79 | 1021.3 |
| 20260506194258 | 15 | 273 | 3.2 | 9.7 | 0.00 | 0.00 | 0.00 | 79 | 1021.2 |
| 20260506193802 | 15 | 244 | 1.6 | 9.7 | 0.00 | 0.00 | 0.00 | 78 | 1021.3 |
| 20260506193757 | 16 | 248 | 1.6 | 4.8 | 0.00 | 0.00 | 0.00 | 79 | 1021.3 |
| 20260506192758 | 16 | 258 | 0.0 | 4.8 | 0.00 | 0.00 | 0.00 | 78 | 1021.3 |
| 20260506192256 | 16 | 262 | 1.6 | 9.7 | 0.00 | 0.00 | 0.00 | 79 | 1021.2 |
| 20260506191757 | 15 | 240 | 3.2 | 9.7 | 0.00 | 0.00 | 0.00 | 79 | 1021.1 |
| 20260506191256 | 15 | 240 | 3.2 | 9.7 | 0.00 | 0.00 | 0.00 | 80 | 1021.1 |
| 20260506190754 | 15 | 240 | 1.6 | 8.0 | 0.00 | 0.00 | 0.00 | 80 | 1021.1 |
| 20260506190252 | 15 | 291 | 1.6 | 8.0 | 0.00 | 0.00 | 0.00 | 81 | 1021.2 |
| 20260506185756 | 15 | 243 | 1.6 | 8.0 | 0.00 | 0.00 | 0.00 | 80 | 1021.2 |
| 20260506185751 | 15 | 269 | 1.6 | 8.0 | 0.00 | 0.00 | 0.00 | 81 | 1021.1 |
| 20260506184756 | 14 | 280 | 0.0 | 3.2 | 0.00 | 0.00 | 0.00 | 83 | 1021.0 |
| 20260506184751 | 15 | 263 | 1.6 | 6.4 | 0.00 | 0.00 | 0.00 | 81 | 1021.1 |
| 20260506184249 | 15 | 240 | 1.6 | 4.8 | 0.00 | 0.00 | 0.00 | 82 | 1021.0 |
| 20260506183751 | 14 | 241 | 0.0 | 4.8 | 0.00 | 0.00 | 0.00 | 83 | 1021.0 |
| 20260506182752 | 14 | 231 | 1.6 | 4.8 | 0.00 | 0.00 | 0.00 | 84 | 1021.1 |
| 20260506182747 | 14 | 280 | 0.0 | 3.2 | 0.00 | 0.00 | 0.00 | 84 | 1021.1 |
| 20260506181749 | 13 | 229 | 1.6 | 4.8 | 0.00 | 0.00 | 0.00 | 84 | 1021.1 |
| 20260506181249 | 13 | 254 | 0.0 | 3.2 | 0.00 | 0.00 | 0.00 | 85 | 1021.1 |
| 20260506180749 | 13 | 256 | 1.6 | 4.8 | 0.00 | 0.00 | 0.00 | 85 | 1021.1 |
| 20260506180249 | 13 | 243 | 1.6 | 4.8 | 0.00 | 0.00 | 0.00 | 85 | 1021.1 |
| 20260506175749 | 13 | 271 | 1.6 | 4.8 | 0.00 | 0.00 | 0.00 | 85 | 1021.1 |
| 20260506175249 | 13 | 277 | 0.0 | 4.8 | 0.00 | 0.00 | 0.00 | 85 | 1021.1 |
| 20260506174747 | 13 | 280 | 0.0 | 1.6 | 0.00 | 0.00 | 0.00 | 84 | 1021.1 |
| 20260506174248 | 13 | 264 | 0.0 | 1.6 | 0.00 | 0.00 | 0.00 | 85 | 1021.0 |
| 20260506173749 | 13 | 209 | 0.0 | 1.6 | 0.00 | 0.00 | 0.00 | 84 | 1020.8 |
| 20260506173247 | 13 | 259 | 0.0 | 1.6 | 0.00 | 0.00 | 0.00 | 84 | 1020.9 |
| 20260506172745 | 13 | 250 | 0.0 | 1.6 | 0.00 | 0.00 | 0.00 | 85 | 1020.8 |
| 20260506172245 | 13 | 282 | 0.0 | 1.6 | 0.00 | 0.00 | 0.00 | 85 | 1020.8 |
| 20260506171744 | 13 | 282 | 1.6 | 4.8 | 0.00 | 0.00 | 0.00 | 85 | 1020.7 |
| 20260506171247 | 13 | 282 | 1.6 | 4.8 | 0.00 | 0.00 | 0.00 | 85 | 1020.8 |
| 20260506170749 | 13 | 311 | 0.0 | 3.2 | 0.00 | 0.00 | 0.00 | 84 | 1020.9 |
| 20260506170744 | 13 | 323 | 0.0 | 3.2 | 0.00 | 0.00 | 0.00 | 84 | 1020.9 |
| 20260506165743 | 13 | 311 | 0.0 | 3.2 | 0.00 | 0.00 | 0.00 | 84 | 1020.9 |
| 20260506165243 | 13 | 331 | 0.0 | 1.6 | 0.00 | 0.00 | 0.00 | 84 | 1020.7 |
| 20260506164745 | 13 | 333 | 0.0 | 3.2 | 0.00 | 0.00 | 0.00 | 84 | 1020.8 |
| 20260506164244 | 13 | 288 | 0.0 | 3.2 | 0.00 | 0.00 | 0.00 | 84 | 1020.7 |
| 20260506163743 | 13 | 288 | 0.0 | 3.2 | 0.00 | 0.00 | 0.00 | 84 | 1020.8 |
| 20260506163243 | 13 | 247 | 0.0 | 3.2 | 0.00 | 0.00 | 0.00 | 85 | 1020.7 |
| 20260506162741 | 13 | 297 | 1.6 | 4.8 | 0.00 | 0.00 | 0.00 | 84 | 1020.6 |
| 20260506162241 | 13 | 255 | 1.6 | 4.8 | 0.00 | 0.00 | 0.00 | 85 | 1020.6 |
| 20260506161739 | 13 | 212 | 1.6 | 4.8 | 0.00 | 0.00 | 0.00 | 85 | 1020.5 |
| 20260506161304 | 13 | 314 | 0.0 | 1.6 | 0.00 | 0.00 | 0.00 | 85 | 1020.5 |
| 20260506161240 | 13 | 314 | 0.0 | 1.6 | 0.00 | 0.00 | 0.00 | 85 | 1020.6 |
| 20260506160240 | 12 | 254 | 0.0 | 3.2 | 0.00 | 0.00 | 0.00 | 85 | 1020.4 |
| 20260506155745 | 12 | 79 | 3.2 | 6.4 | 0.00 | 0.00 | 0.00 | 87 | 1020.0 |
| 20260506155740 | 12 | 335 | 1.6 | 4.8 | 0.00 | 0.00 | 0.00 | 87 | 1020.3 |
| 20260506154737 | 12 | 139 | 3.2 | 6.4 | 0.00 | 0.00 | 0.00 | 87 | 1019.9 |
| 20260506154246 | 12 | 306 | 1.6 | 4.8 | 0.00 | 0.00 | 0.00 | 88 | 1020.7 |
| 20260506154238 | 12 | 167 | 1.6 | 4.8 | 0.00 | 0.00 | 0.00 | 87 | 1020.1 |
| 20260506153735 | 12 | 306 | 0.0 | 4.8 | 0.00 | 0.00 | 0.00 | 88 | 1020.6 |
| 20260506152735 | 12 | 322 | 1.6 | 8.0 | 0.00 | 0.00 | 0.00 | 88 | 1020.7 |
| 20260506152236 | 12 | 316 | 1.6 | 8.0 | 0.00 | 0.00 | 0.00 | 88 | 1020.7 |
| 20260506151737 | 12 | 330 | 3.2 | 8.0 | 0.00 | 0.00 | 0.00 | 88 | 1020.8 |
| 20260506151235 | 12 | 332 | 1.6 | 11.3 | 0.00 | 0.00 | 0.00 | 88 | 1020.8 |
| 20260506150737 | 12 | 337 | 3.2 | 11.3 | 0.00 | 0.00 | 0.00 | 88 | 1020.8 |
| 20260506150241 | 12 | 325 | 3.2 | 9.7 | 0.00 | 0.00 | 0.00 | 88 | 1020.6 |
| 20260506150237 | 12 | 309 | 3.2 | 9.7 | 0.00 | 0.00 | 0.00 | 88 | 1020.7 |
| 20260506145235 | 12 | 321 | 3.2 | 9.7 | 0.00 | 0.00 | 0.00 | 88 | 1020.5 |
| 20260506144734 | 12 | 311 | 1.6 | 6.4 | 0.00 | 0.00 | 0.00 | 88 | 1020.6 |